Location: Newark
(41.1200°N, 81.9000°W)
Time: 13:04:35
(UTC+00:00)

Tiangong 2 - Visible Passes

Search period start: 18 July 2019 00:00
Search period end: 28 July 2019 00:00
Orbit: 378 x 386 km, 42.8° (Epoch: 18 July)

Date Brightness Start Highest point End Pass type
(mag) Time Alt. Az. Time Alt. Az. Time Alt. Az.
18 Jul 1.4 01:47:00 10° WNW 01:50:07 65° N 01:53:14 10° E visible
18 Jul 2.6 03:23:45 10° W 03:25:33 28° W 03:25:33 28° W visible
19 Jul 1.0 02:23:21 10° WNW 02:26:29 74° SSW 02:27:44 33° ESE visible
20 Jul 1.1 01:23:00 10° WNW 01:26:08 80° N 01:29:16 10° E visible
20 Jul 2.5 02:59:53 10° W 03:02:04 26° SW 03:02:04 26° SW visible
21 Jul 1.5 01:59:22 10° W 02:02:25 48° SSW 02:04:16 20° SE visible
22 Jul 3.0 02:36:16 10° WSW 02:38:27 18° SSW 02:38:40 17° SSW visible
23 Jul 2.3 01:35:28 10° W 01:38:15 30° SSW 01:40:57 11° SE visible
24 Jul 3.7 02:13:41 10° SW 02:14:10 10° SW 02:14:39 10° SSW visible
